Volver al catálogo

DELTA 1 DEB

ActivoLEO
NORAD 9701·DEBRIS·🇺🇸 United States

Lanzado Nov 6, 1973 desde Vandenberg Space Force Base

Loading…

Próximos Pases (próximas 24 horas)

TLE

ActualizadoSource: Space-Track

Época: Sep 13, 2026, 04:59 UTC

1  9701U 73086FZ  26256.20797938  .00004198  00000-0  88575-2 0  9994
2  9701 102.7348 159.8564 0021554 102.7578  51.1183 13.31783696461950

Sigue DELTA 1 DEB en tiempo real con AllMySat

Download on the App Store